Dewpoint
38 39 39 40 40 40 42 44 47 50 51 54 56 59 60 61 60 59 59 59 58 57 56 55 55 56 56 55 54 52 50 49 43 44 44 43 41 41 42 44 46 46 45
37 38 38 39 39 40 41 42 46 49 50 54 57 59 59 58 58 58 58 57 56 55 54 54 54 55 54 53 52 50 50 48 44 41 42 40 39 39 39 38 39 40 40
37 38 38 39 39 40 41 41 44 47 49 52 57 58 59 58 58 58 57 56 55 54 54 54 54 53 52 51 50 49 48 45 44 42 40 41 39 38 35 35 36 36 36
37 38 38 38 39 40 40 41 44 46 48 52 57 58 59 57 57 57 56 55 54 54 53 53 52 51 51 50 48 47 45 44 42 41 38 37 35 33 33 31 31 32 32
37 37 37 38 39 39 40 40 42 45 48 51 55 58 59 57 57 56 55 53 51 50 50 50 50 51 51 49 47 47 45 43 41 38 36 34 33 32 31 31 31 31 30
36 36 36 37 37 39 40 40 42 45 47 49 53 58 58 57 56 55 53 52 51 51 51 51 51 52 51 51 50 48 45 41 39 37 35 34 31 31 31 31 29 28 28
36 35 35 36 37 39 39 40 42 45 47 49 54 57 58 56 56 55 54 52 50 49 49 48 48 48 48 46 47 47 45 44 40 36 34 31 29 29 29 27 26 28 27
35 35 34 36 37 38 39 40 42 45 47 48 55 56 55 55 55 54 51 46 43 42 41 40 39 37 35 33 31 29 29 30 30 28 28 27 26 26 26 25 24 23 23
35 35 35 36 37 39 40 40 42 45 47 49 55 54 52 51 51 48 44 41 39 39 38 37 36 35 40 40 35 36 35 36 39 40 39 38 35 33 28 23 20 18 18
34 36 36 37 38 39 40 41 43 46 48 54 52 51 50 48 49 46 42 39 38 38 38 39 41 39 40 39 34 33 31 26 21 20 21 25 28 29 29 22 20 18 17
36 36 37 36 39 40 41 43 45 47 52 50 49 49 48 47 47 46 44 39 38 38 38 38 38 40 40 38 36 28 24 24 25 21 21 21 20 21 20 21 21 19 16
36 36 36 38 40 40 41 43 47 49 47 47 46 46 47 46 47 45 44 43 41 37 36 37 37 38 37 36 32 34 32 27 22 21 20 19 19 20 21 22 24 24 24
37 35 36 38 40 40 42 45 47 48 46 45 45 44 44 44 44 45 44 42 41 36 35 36 37 36 36 34 34 33 28 23 21 20 20 20 20 20 21 23 24 25 25
37 38 38 39 40 41 43 48 47 46 45 44 43 43 43 42 41 39 37 36 38 36 37 35 35 34 34 32 27 25 22 22 22 20 20 21 21 20 20 22 22 23 22
39 38 38 39 40 42 47 47 47 47 45 43 43 41 40 39 37 37 35 34 34 35 34 31 27 24 24 24 25 25 24 22 21 20 20 20 20 20 21 23 22 22 20
39 39 38 40 42 46 45 45 48 47 46 45 44 41 40 40 40 38 38 38 37 35 28 24 23 23 23 22 22 22 23 24 22 21 20 20 20 21 22 22 23 22 21
39 37 39 41 45 44 43 43 42 45 46 44 44 43 41 41 41 40 39 37 34 29 23 23 23 24 23 22 22 22 22 23 23 22 22 23 23 23 22 22 22 21 21
37 39 41 45 45 44 43 42 42 40 40 41 43 42 42 42 41 39 36 31 25 25 24 25 24 24 23 23 23 23 24 24 24 24 23 23 23 23 22 22 23 22 22
39 42 45 45 44 44 43 42 41 40 40 40 40 41 40 40 38 35 29 23 23 24 24 25 24 24 24 24 25 26 26 25 25 25 25 25 26 26 25 25 25 25 25
43 45 45 44 44 43 42 41 40 39 39 38 38 37 36 33 28 26 25 24 24 25 25 25 25 25 26 27 27 27 28 25 25 25 25 24 24 24 24 24 24 24 24
45 45 45 44 43 43 42 40 40 39 37 37 37 36 34 28 26 25 24 24 25 25 26 26 28 28 28 28 29 29 27 26 25 25 25 25 25 25 24 24 24 24 24
45 45 44 43 43 42 41 40 39 37 36 36 35 33 32 27 26 25 25 25 25 26 27 29 29 29 30 30 29 27 26 25 26 26 26 26 25 25 25 24 23 24 24
45 44 43 43 42 42 41 40 38 36 36 34 31 28 27 27 26 26 27 26 27 27 27 29 30 29 29 28 28 29 27 26 26 27 27 26 25 25 24 24 24 24 24
45 44 43 42 41 40 39 39 37 36 33 30 28 27 27 27 27 27 27 28 28 28 29 30 30 29 28 27 27 28 27 27 27 27 27 27 27 27 25 25 25 26 26
44 43 42 41 40 39 38 37 35 33 31 29 27 27 28 28 27 28 28 28 29 29 29 31 31 28 27 27 27 27 29 29 27 28 28 28 27 27 26 26 25 25 25
44 43 42 40 39 39 37 35 33 31 30 28 28 28 28 28 28 29 29 29 30 30 30 31 29 27 26 26 26 31 31 30 29 29 28 28 27 27 26 25 25 25 24
Lifted_Index
5 6 7 8 9 9 9 6 4 2 1 1 -1 -2 -3 -4 -3 -3 -2 -2 -2 -1 -0 0 1 1 1 2 2 2 2 3 3 5 6 6 6 7 7 8 9 10 11
5 6 7 8 9 9 9 6 3 2 1 0 -1 -2 -3 -3 -3 -2 -2 -2 -1 -0 -0 0 1 1 2 2 2 2 3 3 4 5 6 6 7 7 8 9 11 12 13
5 6 7 8 9 9 9 6 3 2 2 1 -0 -1 -2 -2 -2 -2 -1 -1 -0 0 1 1 1 2 2 2 2 2 3 4 5 5 6 6 7 9 10 11 13 15 16
5 6 7 8 9 9 9 7 4 2 2 1 0 -0 -1 -1 -1 -1 -1 -0 0 1 1 2 2 2 2 1 2 3 4 5 5 6 6 6 8 9 11 13 15 17 17
6 7 8 9 9 10 9 7 4 3 2 1 0 -0 -1 -1 -0 -0 0 1 1 2 2 2 2 2 2 2 3 4 5 5 6 6 7 7 9 11 13 15 16 17 17
7 8 9 9 10 10 9 7 4 3 2 1 0 -0 -1 -1 0 1 2 2 2 2 3 3 2 3 3 3 4 5 6 6 7 8 9 10 12 14 16 16 17 17 16
8 8 9 10 10 10 9 7 4 2 2 1 0 -0 -1 -0 1 2 3 3 3 3 3 3 3 4 4 5 6 6 7 8 9 11 12 14 15 16 17 17 17 16 16
8 9 9 10 10 10 9 7 4 2 2 1 0 0 0 1 2 2 3 3 3 3 3 4 4 5 6 6 7 8 9 11 13 15 16 16 17 17 17 17 16 17 17
9 9 10 10 10 10 8 6 3 2 2 1 1 1 2 2 2 2 3 3 3 4 4 5 5 6 7 8 9 10 13 15 16 16 17 17 17 17 17 17 16 17 17
9 9 10 10 10 9 7 5 3 2 2 1 1 2 2 2 2 3 3 4 4 4 5 6 7 8 9 11 12 14 15 16 16 16 16 16 16 17 17 17 17 17 17
8 9 9 9 9 8 6 4 2 2 1 2 2 3 3 2 2 3 3 4 4 5 6 8 10 11 13 14 15 16 16 16 16 15 15 15 15 16 17 18 18 18 18
9 9 9 9 9 7 5 4 3 2 1 2 3 3 3 3 3 3 4 4 5 6 8 11 13 15 16 16 16 16 16 15 15 14 14 14 15 15 17 18 18 18 18
9 9 9 9 8 7 6 5 4 2 2 3 3 3 3 3 3 3 4 6 7 9 12 15 16 17 17 17 16 16 16 15 14 14 14 14 14 15 17 17 18 17 17
8 8 9 8 7 7 7 7 5 4 3 3 3 3 3 3 3 4 5 7 9 12 15 17 17 17 17 16 16 16 15 15 14 14 13 14 14 15 16 17 17 16 16
8 8 8 7 7 7 8 8 7 5 4 3 3 3 3 3 3 5 6 8 11 14 16 16 16 16 16 15 15 15 15 14 14 14 13 14 14 15 16 16 16 16 16
8 8 7 7 7 8 8 8 7 5 4 3 3 3 3 3 5 6 8 10 13 15 16 15 15 15 15 15 15 15 15 14 14 14 14 14 14 15 15 16 15 15 15
7 7 6 7 7 8 8 7 6 4 3 3 3 3 4 5 6 8 11 13 15 16 15 15 15 15 15 15 15 15 14 14 14 14 14 14 14 14 15 15 15 15 15
6 6 6 7 7 7 7 6 4 3 3 4 4 4 5 7 9 11 14 15 16 16 15 15 15 15 15 15 15 15 15 15 15 15 15 14 14 14 14 14 14 14 14
6 6 6 7 7 6 6 5 4 3 3 4 5 7 8 10 12 14 16 16 16 15 15 15 15 15 15 15 15 15 15 15 15 15 15 15 14 14 14 14 14 14 14
6 6 6 7 6 5 5 4 3 3 3 5 7 9 11 13 15 16 16 16 16 15 15 15 15 15 16 15 15 15 15 15 15 15 15 15 15 14 14 14 13 13 13
6 6 6 6 5 5 4 4 3 3 4 5 8 11 13 15 15 16 16 17 16 16 15 15 16 16 16 16 16 15 15 15 15 15 15 15 15 15 14 14 14 14 14
6 6 5 5 4 4 4 3 3 3 4 7 10 13 15 16 16 16 17 17 17 16 16 16 16 16 16 16 16 16 16 16 16 16 15 15 15 15 15 14 14 14 14
5 5 5 4 4 4 3 3 4 4 6 9 12 14 16 16 16 17 17 17 17 17 17 16 16 16 17 17 17 17 17 17 17 17 16 16 15 15 15 15 15 15 15
5 5 4 4 4 4 3 3 4 5 8 11 13 15 16 16 17 17 17 17 17 17 17 17 17 17 17 17 18 18 18 18 18 17 17 16 16 16 15 15 15 15 15
5 5 4 4 4 3 3 3 4 6 9 12 14 15 16 16 17 17 18 17 17 17 17 17 17 17 17 17 18 18 18 18 18 18 18 17 16 16 16 15 15 15 15
5 5 5 4 4 3 3 3 4 7 10 13 15 15 16 16 17 18 18 17 17 17 17 17 17 17 17 18 18 18 18 18 18 18 18 17 17 16 16 15 15 15 15